Waarnemingen

Advertentie
Mijn weer
South Uist Range, Groot Brittannië (3023): temperatuur & dauwpunt: 15.01.2021 10:00:00 - 21.01.2021 10:00:00 (GMT)South Uist Range, Groot Brittannië (3023): temperatuur -20cm & temperatuur -100cm: 15.01.2021 10:00:00 - 21.01.2021 10:00:00 (GMT)South Uist Range, Groot Brittannië (3023): windsnelheid & windstoten: 15.01.2021 10:00:00 - 21.01.2021 10:00:00 (GMT)South Uist Range, Groot Brittannië (3023): windrichting: 15.01.2021 10:00:00 - 21.01.2021 10:00:00 (GMT)South Uist Range, Groot Brittannië (3023): luchtdruk: 15.01.2021 10:00:00 - 21.01.2021 10:00:00 (GMT)South Uist Range, Groot Brittannië (3023): zicht: 15.01.2021 10:00:00 - 21.01.2021 10:00:00 (GMT)South Uist Range, Groot Brittannië (3023): neerslag: 15.01.2021 10:00:00 - 21.01.2021 10:00:00 (GMT)
Datum & Tijd tt [°C] td [°C] tt -20cm [°C] tt -100cm [°C] ff [km/u] ff [kn] fx [km/u] fx [kn] dd ppp [hPa] vv [km] rr [mm]
21.01.2021 10:00:00 4,6 -0,8 - - 41 22 61 33 N 977,1 70 0,0
21.01.2021 09:00:00 3,8 1,4 3,7 5,9 26 14 59 32 N 976,8 30 0,2
21.01.2021 08:00:00 4,0 1,2 - - 35 19 46 25 N 976,3 35 0,0
21.01.2021 07:00:00 3,7 0,9 - - 35 19 63 34 N 976,0 40 0,0
21.01.2021 06:00:00 4,0 1,4 - - 29 16 48 26 N 976,0 30 0,0
21.01.2021 05:00:00 3,8 1,0 - - 31 17 - - N 975,9 30 0,0
21.01.2021 04:00:00 2,9 1,3 - - 31 17 50 27 N 975,7 75 0,0
21.01.2021 03:00:00 3,0 1,5 - - 29 16 - - N 975,7 60 0,0
21.01.2021 02:00:00 2,4 1,6 - - 37 20 61 33 NNO 975,8 28 0,0
21.01.2021 01:00:00 2,9 1,9 - - 26 14 - - N 975,4 45 0,2
21.01.2021 00:00:00 3,0 2,2 - - 35 19 50 27 NNO 975,7 40 1,8
20.01.2021 23:00:00 2,9 2,3 - - 34 18 57 31 N 975,6 19 1,2
20.01.2021 22:00:00 2,8 2,0 - - 37 20 50 27 N 975,7 13 1,0
20.01.2021 21:00:00 2,8 2,2 - - 29 16 - - N 976,7 15 1,8
20.01.2021 20:00:00 2,2 1,2 - - 22 12 - - N 977,7 16 0,0
20.01.2021 19:00:00 2,2 0,6 - - 15 8 - - NNW 978,4 65 0,0
20.01.2021 18:00:00 1,9 0,7 - - 15 8 - - N 979,0 75 0,0
20.01.2021 17:00:00 1,1 0,4 - - 15 8 - - N 979,5 75 0,0
20.01.2021 16:00:00 1,4 0,5 - - 15 8 - - N 979,8 75 0,0
20.01.2021 15:00:00 2,5 1,2 - - 15 8 - - N 980,1 75 0,0
20.01.2021 14:00:00 3,0 2,0 - - 15 8 - - N 980,5 75 0,0
20.01.2021 13:00:00 2,8 2,1 - - 11 6 - - NNO 980,9 40 0,2
20.01.2021 12:00:00 2,6 2,2 - - 11 6 - - N 981,6 75 0,0
20.01.2021 11:00:00 0,5 0,3 - - 5 3 - - NO 982,2 75 0,0
20.01.2021 10:00:00 0,0 -0,2 - - 11 6 - - N 982,3 50 0,0
20.01.2021 09:00:00 0,0 -0,3 4,4 5,9 5 3 - - NO 982,5 45 0,0
20.01.2021 08:00:00 0,5 0,4 - - 8 4 - - NNO 982,6 75 0,0
20.01.2021 07:00:00 1,0 0,8 - - 4 2 - - NNO 982,9 75 0,0
20.01.2021 06:00:00 0,1 -0,1 - - 8 4 - - O 983,2 75 0,0
20.01.2021 05:00:00 2,0 1,7 - - 13 7 - - N 983,5 75 0,0
20.01.2021 04:00:00 -0,2 -0,4 - - 5 3 - - N 983,9 45 0,0
20.01.2021 03:00:00 0,4 0,4 - - 4 2 - - ONO 984,1 75 0,0
20.01.2021 02:00:00 0,1 -0,1 - - 4 2 - - ONO 984,6 25 0,0
20.01.2021 01:00:00 0,8 0,6 - - 2 1 - - NNW 985,4 70 0,0
20.01.2021 00:00:00 0,8 0,5 - - 2 1 - - O 985,8 75 0,0
19.01.2021 23:00:00 -0,7 -1,1 - - 8 4 - - NO 986,3 30 0,0
19.01.2021 22:00:00 -0,1 -0,4 - - 4 2 - - NO 986,8 75 0,0
19.01.2021 21:00:00 -0,1 -0,5 - - 4 2 - - O 987,3 75 0,0
19.01.2021 20:00:00 0,6 0,0 - - 0 0 - - N 987,9 75 0,0
19.01.2021 19:00:00 1,3 0,5 - - 4 2 - - ZO 988,4 75 0,0
19.01.2021 18:00:00 1,3 0,4 - - 9 5 - - Z 988,8 75 0,0
19.01.2021 17:00:00 2,0 1,0 - - 9 5 - - ZZO 989,5 75 0,0
19.01.2021 16:00:00 2,2 1,3 - - 13 7 - - ZZO 990,2 75 0,0
19.01.2021 15:00:00 3,9 2,8 - - 11 6 - - Z 990,8 75 0,0
19.01.2021 14:00:00 4,4 3,1 - - 11 6 - - Z 991,7 70 0,6
19.01.2021 13:00:00 4,6 3,6 - - 13 7 - - ZW 992,8 8 0,8
19.01.2021 12:00:00 5,0 2,9 - - 11 6 - - Z 993,5 75 0,2
19.01.2021 11:00:00 4,9 2,6 - - 11 6 - - W 994,3 23 0,0
19.01.2021 10:00:00 4,4 3,0 - - 11 6 - - WZW 994,7 17 0,2
19.01.2021 09:00:00 5,7 3,7 4,7 5,9 18 10 - - WZW 995,4 12 0,0
19.01.2021 08:00:00 5,4 2,9 - - 21 11 - - W 995,5 30 0,0
19.01.2021 07:00:00 5,5 2,6 - - 18 10 - - W 996,0 35 0,0
19.01.2021 06:00:00 5,7 2,9 - - 26 14 - - WZW 996,8 45 0,0
19.01.2021 05:00:00 5,2 3,1 - - 26 14 - - WZW 997,2 40 0,0
19.01.2021 04:00:00 4,8 2,2 - - 24 13 - - WZW 997,7 30 0,0
19.01.2021 03:00:00 5,7 1,6 - - 28 15 - - W 998,2 40 0,0
19.01.2021 02:00:00 5,9 1,1 - - 24 13 - - W 999,0 50 0,0
19.01.2021 01:00:00 5,0 1,2 - - 18 10 - - W 999,6 35 0,0
19.01.2021 00:00:00 5,3 2,0 - - 28 15 - - W 1000,4 35 0,0
18.01.2021 23:00:00 5,0 2,9 - - 15 8 - - W 1001,1 18 0,0
18.01.2021 22:00:00 3,7 1,7 - - 15 8 - - WZW 1001,7 15 0,4
18.01.2021 21:00:00 5,2 1,7 - - 16 9 - - W 1002,2 26 0,0
18.01.2021 20:00:00 5,7 2,4 - - 21 11 - - W 1002,6 30 0,0
18.01.2021 19:00:00 5,2 3,2 - - 21 11 - - W 1003,3 19 0,0
18.01.2021 18:00:00 5,7 3,3 - - 24 13 48 26 W 1003,7 35 0,0
18.01.2021 17:00:00 5,1 3,5 - - 29 16 65 35 W 1004,1 35 0,6
18.01.2021 16:00:00 5,4 3,6 - - 39 21 67 36 W 1004,5 20 0,8
18.01.2021 15:00:00 6,6 3,9 - - 37 20 65 35 W 1004,9 24 0,0
18.01.2021 14:00:00 6,6 2,7 - - 46 25 59 32 W 1005,6 35 0,0
18.01.2021 13:00:00 6,7 3,3 - - 35 19 63 34 W 1006,6 28 0,0
18.01.2021 12:00:00 6,3 3,9 - - 42 23 57 31 W 1007,6 19 0,2
18.01.2021 11:00:00 6,5 3,2 - - 39 21 61 33 WZW 1008,4 22 0,2
18.01.2021 10:00:00 6,4 3,4 - - 39 21 61 33 W 1009,2 19 0,0
18.01.2021 09:00:00 5,2 2,8 5,0 5,7 42 23 61 33 W 1009,7 15 0,6
18.01.2021 08:00:00 6,0 2,8 - - 35 19 59 32 W 1010,0 30 0,0
18.01.2021 07:00:00 4,9 2,8 - - 34 18 59 32 W 1010,3 7 0,2
18.01.2021 06:00:00 6,4 2,0 - - 35 19 54 29 W 1010,5 30 0,0
18.01.2021 05:00:00 6,2 2,7 - - 42 23 54 29 W 1010,7 28 0,0
18.01.2021 04:00:00 5,7 1,9 - - 37 20 55 30 W 1011,1 45 0,0
18.01.2021 03:00:00 6,3 2,6 - - 39 21 57 31 W 1011,5 26 0,0
18.01.2021 02:00:00 5,9 2,6 - - 39 21 54 29 W 1011,6 26 0,0
18.01.2021 01:00:00 5,1 2,2 - - 39 21 70 38 WNW 1012,0 23 0,4
18.01.2021 00:00:00 6,1 3,3 - - 37 20 65 35 WNW 1012,1 18 0,0
17.01.2021 23:00:00 6,8 2,2 - - 44 24 65 35 W 1012,1 24 0,0
17.01.2021 22:00:00 6,9 3,9 - - 42 23 61 33 W 1012,0 17 0,0
17.01.2021 21:00:00 6,8 4,7 - - 42 23 68 37 W 1012,4 5 0,8
17.01.2021 20:00:00 7,3 5,4 - - 46 25 65 35 W 1012,6 4,9 0,2
17.01.2021 19:00:00 6,8 5,9 - - 35 19 54 29 W 1012,9 13 0,2
17.01.2021 18:00:00 8,0 5,8 - - 39 21 52 28 W 1013,2 17 0,2
17.01.2021 17:00:00 7,9 5,7 - - 35 19 50 27 W 1013,4 20 0,0
17.01.2021 16:00:00 7,9 6,0 - - 35 19 48 26 W 1013,5 20 0,2
17.01.2021 15:00:00 7,0 6,1 - - 35 19 59 32 W 1013,3 3,9 2,2
17.01.2021 14:00:00 8,3 6,6 - - 35 19 55 30 W 1013,5 13 0,0
17.01.2021 13:00:00 7,9 6,1 - - 41 22 61 33 WZW 1013,7 19 0,0
17.01.2021 12:00:00 6,6 5,6 - - 31 17 52 28 ZW 1014,7 10 1,6
17.01.2021 11:00:00 6,8 5,4 - - 37 20 63 34 WZW 1015,9 8 0,6
17.01.2021 10:00:00 6,9 4,4 - - 31 17 48 26 WZW 1016,3 16 0,0
17.01.2021 09:00:00 7,2 4,0 4,7 5,7 34 18 52 28 W 1016,4 18 0,0
17.01.2021 08:00:00 6,9 2,1 - - 34 18 52 28 W 1015,9 27 0,0
17.01.2021 07:00:00 5,3 2,9 - - 22 12 61 33 WNW 1015,6 23 0,4
17.01.2021 06:00:00 5,7 3,3 - - 34 18 63 34 WNW 1015,1 15 0,0
17.01.2021 05:00:00 5,7 1,4 - - 41 22 61 33 WNW 1014,7 26 0,0
17.01.2021 04:00:00 5,9 2,8 - - 26 14 61 33 NW 1014,2 22 0,0
17.01.2021 03:00:00 6,7 2,1 - - 42 23 67 36 WNW 1013,5 29 0,0
17.01.2021 02:00:00 6,1 3,1 - - 46 25 61 33 W 1012,7 25 0,0
17.01.2021 01:00:00 6,5 2,2 - - 41 22 67 36 WNW 1012,1 27 0,0
17.01.2021 00:00:00 6,7 2,3 - - 44 24 65 35 WNW 1011,6 22 0,0
16.01.2021 23:00:00 6,4 3,0 - - 41 22 65 35 W 1011,0 9 0,2
16.01.2021 22:00:00 6,0 1,8 - - 48 26 67 36 W 1010,4 11 0,0
16.01.2021 21:00:00 6,4 3,0 - - 41 22 68 37 WNW 1009,9 18 0,0
16.01.2021 20:00:00 6,7 2,3 - - 50 27 67 36 W 1009,4 21 0,0
16.01.2021 19:00:00 6,6 2,7 - - 46 25 67 36 W 1008,7 24 0,0
16.01.2021 18:00:00 7,1 2,7 - - 46 25 68 37 W 1008,3 19 0,0
16.01.2021 17:00:00 7,0 3,0 - - 46 25 67 36 W 1007,7 14 0,0
16.01.2021 16:00:00 7,4 2,0 - - 50 27 68 37 W 1007,1 21 0,0
16.01.2021 15:00:00 7,5 3,4 - - 55 30 74 40 W 1006,2 16 0,0
16.01.2021 14:00:00 7,9 3,9 - - 54 29 81 44 W 1005,3 13 0,0
16.01.2021 13:00:00 8,1 4,2 - - 61 33 81 44 W 1004,3 13 0,0
16.01.2021 12:00:00 7,6 5,2 - - 63 34 80 43 W 1003,4 18 0,0
16.01.2021 11:00:00 8,0 5,8 - - 59 32 78 42 W 1002,2 11 0,0
16.01.2021 10:00:00 8,2 6,4 - - 54 29 76 41 W 1000,6 10 0,2
16.01.2021 09:00:00 8,1 7,0 4,5 5,7 52 28 72 39 W 999,1 8 1,2
16.01.2021 08:00:00 8,1 7,5 - - 31 17 54 29 W 997,8 9 0,6
16.01.2021 07:00:00 7,8 7,4 - - 35 19 - - ZW 997,1 12 0,0
16.01.2021 06:00:00 7,2 6,7 - - 31 17 48 26 ZZW 997,7 6 0,2
16.01.2021 05:00:00 7,3 6,6 - - 46 25 59 32 ZW 998,5 6 0,4
16.01.2021 04:00:00 7,5 7,5 - - 34 18 59 32 ZZW 999,1 10 0,2
16.01.2021 03:00:00 8,0 8,0 - - 37 20 63 34 Z 999,7 19 0,6
16.01.2021 02:00:00 7,8 7,8 - - 52 28 78 42 Z 1000,3 1,9 0,6
16.01.2021 01:00:00 7,9 7,6 - - 63 34 91 49 Z 1001,3 2,6 0,4
16.01.2021 00:00:00 7,9 7,5 - - 68 37 96 52 ZZO 1002,7 3,1 1,8
15.01.2021 23:00:00 7,0 6,2 - - 70 38 111 60 ZZO 1004,2 2,2 1,8
15.01.2021 22:00:00 7,1 6,0 - - 76 41 104 56 ZZO 1005,6 2,9 2,4
15.01.2021 21:00:00 7,0 5,5 - - 76 41 107 58 ZZO 1007,4 4,4 1,2
15.01.2021 20:00:00 7,0 5,4 - - 72 39 98 53 ZZO 1009,5 5 1,4
15.01.2021 19:00:00 6,5 4,9 - - 68 37 89 48 ZZO 1011,3 4,8 1,2
15.01.2021 18:00:00 6,2 4,6 - - 61 33 83 45 ZZO 1013,3 5 0,4
15.01.2021 17:00:00 6,7 3,8 - - 52 28 78 42 ZZO 1015,0 40 0,0
15.01.2021 16:00:00 6,5 4,1 - - 46 25 68 37 ZZO 1016,2 35 0,0
15.01.2021 15:00:00 6,3 3,6 - - 52 28 72 39 ZZO 1017,7 45 0,0
15.01.2021 14:00:00 6,4 4,0 - - 44 24 65 35 ZZO 1019,2 35 0,0
15.01.2021 13:00:00 6,4 3,8 - - 42 23 61 33 Z 1020,5 45 0,0
15.01.2021 12:00:00 6,6 4,2 - - 41 22 57 31 Z 1021,6 40 0,0
15.01.2021 11:00:00 6,4 4,2 - - 34 18 46 25 ZZO 1022,7 35 0,0
15.01.2021 10:00:00 5,9 4,2 - - 24 13 - - ZZO 1023,1 35 0,0

tt = temperatuur
td = dauwpunt
tt -20cm = temperatuur -20cm
tt -100cm = temperatuur -100cm
ff = windsnelheid
fx = windstoten
dd = windrichting
ppp = luchtdruk
vv = zicht
rr = neerslag

Weerstations in de omgeving